Time,TemperatureF,DewpointF,PressureIn,WindDirection,WindDirectionDegrees,WindSpeedMPH,WindSpeedGustMPH,Humidity,HourlyPrecipIn,Conditions,Clouds,dailyrainin,SoftwareType,DateUTC
2013-09-16 00:00:00,53.0,51.0,30.09,South,187,0.0,5.0,91,0.00,,,-99.99,,2013-09-16 04:00:00,
2013-09-16 00:43:00,53.0,51.0,30.09,South,187,0.0,5.0,91,0.00,,,-99.99,,2013-09-16 04:43:00,
2013-09-16 00:54:00,53.0,51.0,30.09,South,187,0.0,5.0,91,0.00,,,-99.99,,2013-09-16 04:54:00,
2013-09-16 01:00:00,52.0,50.0,30.08,South,191,0.0,1.0,93,0.00,,,-99.99,,2013-09-16 05:00:00,
2013-09-16 01:44:00,52.0,50.0,30.08,South,191,0.0,1.0,93,0.00,,,-99.99,,2013-09-16 05:44:00,
2013-09-16 01:53:00,52.0,50.0,30.08,South,191,0.0,1.0,93,0.00,,,-99.99,,2013-09-16 05:53:00,
2013-09-16 02:00:00,52.0,50.0,30.08,SSW,199,1.0,4.0,94,0.00,,,-99.99,,2013-09-16 06:00:00,
2013-09-16 02:52:00,52.0,50.0,30.08,SSW,199,1.0,4.0,94,0.00,,,-99.99,,2013-09-16 06:52:00,
2013-09-16 03:00:00,55.0,53.0,30.06,SSW,197,0.0,5.0,94,0.00,,,-99.99,,2013-09-16 07:00:00,
2013-09-16 03:43:00,55.0,53.0,30.06,SSW,197,0.0,5.0,94,0.00,,,-99.99,,2013-09-16 07:43:00,
2013-09-16 03:52:00,55.0,53.0,30.06,SSW,197,0.0,5.0,94,0.00,,,-99.99,,2013-09-16 07:52:00,
2013-09-16 04:00:00,57.0,55.0,30.04,South,171,2.0,4.0,93,0.00,,,-99.99,,2013-09-16 08:00:00,
2013-09-16 04:42:00,57.0,55.0,30.04,South,171,2.0,4.0,93,0.00,,,-99.99,,2013-09-16 08:42:00,
2013-09-16 04:52:00,57.0,55.0,30.04,South,171,2.0,4.0,93,0.00,,,-99.99,,2013-09-16 08:52:00,
2013-09-16 05:00:00,55.0,53.0,30.03,SSW,207,0.0,3.0,93,0.00,,,-99.99,,2013-09-16 09:00:00,
2013-09-16 05:43:00,55.0,53.0,30.03,SSW,207,0.0,3.0,93,0.00,,,-99.99,,2013-09-16 09:43:00,
2013-09-16 05:53:00,55.0,53.0,30.03,SSW,207,0.0,3.0,93,0.00,,,-99.99,,2013-09-16 09:53:00,
2013-09-16 06:00:00,56.0,54.0,30.02,SSW,202,0.0,0.0,94,0.00,,,-99.99,,2013-09-16 10:00:00,
2013-09-16 06:42:00,56.0,54.0,30.02,SSW,202,0.0,0.0,94,0.00,,,-99.99,,2013-09-16 10:42:00,
2013-09-16 06:53:00,56.0,54.0,30.02,SSW,202,0.0,0.0,94,0.00,,,-99.99,,2013-09-16 10:53:00,
2013-09-16 07:00:00,56.0,54.0,30.04,ESE,115,0.0,0.0,94,0.00,,,-99.99,,2013-09-16 11:00:00,
2013-09-16 07:42:00,56.0,54.0,30.04,ESE,115,0.0,0.0,94,0.00,,,-99.99,,2013-09-16 11:42:00,
2013-09-16 07:52:00,56.0,54.0,30.04,ESE,115,0.0,0.0,94,0.00,,,-99.99,,2013-09-16 11:52:00,
2013-09-16 08:00:00,60.0,58.0,30.04,West,266,0.0,0.0,92,0.00,,,-99.99,,2013-09-16 12:00:00,
2013-09-16 08:42:00,60.0,58.0,30.04,West,266,0.0,0.0,92,0.00,,,-99.99,,2013-09-16 12:42:00,
2013-09-16 08:52:00,60.0,58.0,30.04,West,266,0.0,0.0,92,0.00,,,-99.99,,2013-09-16 12:52:00,
2013-09-16 09:00:00,66.0,60.0,30.05,NW,313,0.0,6.0,83,0.00,,,-99.99,,2013-09-16 13:00:00,
2013-09-16 09:42:00,66.0,60.0,30.05,NW,313,0.0,6.0,83,0.00,,,-99.99,,2013-09-16 13:42:00,
2013-09-16 09:52:00,66.0,60.0,30.05,NW,313,0.0,6.0,83,0.00,,,-99.99,,2013-09-16 13:52:00,
2013-09-16 10:00:00,65.0,58.0,30.06,NNW,347,10.0,14.0,78,0.00,,,-99.99,,2013-09-16 14:00:00,
2013-09-16 10:42:00,65.0,58.0,30.06,NNW,347,10.0,14.0,78,0.00,,,-99.99,,2013-09-16 14:42:00,
2013-09-16 10:52:00,65.0,58.0,30.06,NNW,347,10.0,14.0,78,0.00,,,-99.99,,2013-09-16 14:52:00,
2013-09-16 11:00:00,63.0,56.0,30.06,North,352,5.0,16.0,79,0.00,,,-99.99,,2013-09-16 15:00:00,
2013-09-16 11:43:00,63.0,56.0,30.06,North,352,5.0,16.0,79,0.00,,,-99.99,,2013-09-16 15:43:00,
2013-09-16 11:53:00,63.0,56.0,30.06,North,352,5.0,16.0,79,0.00,,,-99.99,,2013-09-16 15:53:00,
2013-09-16 12:00:00,61.0,57.0,30.07,NNW,344,3.0,12.0,85,0.00,,,-99.99,,2013-09-16 16:00:00,
2013-09-16 12:43:00,61.0,57.0,30.07,NNW,344,3.0,12.0,85,0.00,,,-99.99,,2013-09-16 16:43:00,
2013-09-16 12:52:00,61.0,57.0,30.07,NNW,344,3.0,12.0,85,0.00,,,-99.99,,2013-09-16 16:52:00,
2013-09-16 13:00:00,61.0,57.0,30.07,NNE,25,2.0,10.0,85,0.00,,,-99.99,,2013-09-16 17:00:00,
2013-09-16 13:43:00,61.0,57.0,30.07,NNE,25,2.0,10.0,85,0.00,,,-99.99,,2013-09-16 17:43:00,
2013-09-16 13:53:00,61.0,57.0,30.07,NNE,25,2.0,10.0,85,0.00,,,-99.99,,2013-09-16 17:53:00,
2013-09-16 14:00:00,63.0,56.0,30.06,North,7,4.0,12.0,78,0.00,,,-99.99,,2013-09-16 18:00:00,
2013-09-16 14:42:00,63.0,56.0,30.06,North,7,4.0,12.0,78,0.00,,,-99.99,,2013-09-16 18:42:00,
2013-09-16 14:52:00,63.0,56.0,30.06,North,7,4.0,12.0,78,0.00,,,-99.99,,2013-09-16 18:52:00,
2013-09-16 15:00:00,64.0,55.0,30.06,NNW,339,5.0,8.0,72,0.00,,,-99.99,,2013-09-16 19:00:00,
2013-09-16 15:42:00,64.0,55.0,30.06,NNW,339,5.0,8.0,72,0.00,,,-99.99,,2013-09-16 19:42:00,
2013-09-16 15:53:00,64.0,55.0,30.06,NNW,339,5.0,8.0,72,0.00,,,-99.99,,2013-09-16 19:53:00,
2013-09-16 16:00:00,66.0,57.0,30.05,WNW,287,0.0,8.0,72,0.00,,,-99.99,,2013-09-16 20:00:00,
2013-09-16 16:43:00,66.0,57.0,30.05,WNW,287,0.0,8.0,72,0.00,,,-99.99,,2013-09-16 20:43:00,
2013-09-16 16:52:00,66.0,57.0,30.05,WNW,287,0.0,8.0,72,0.00,,,-99.99,,2013-09-16 20:52:00,
2013-09-16 17:00:00,70.0,52.0,30.05,NW,325,6.0,10.0,53,0.00,,,-99.99,,2013-09-16 21:00:00,
2013-09-16 17:44:00,70.0,52.0,30.05,NW,325,6.0,10.0,53,0.00,,,-99.99,,2013-09-16 21:44:00,
2013-09-16 17:56:00,70.0,52.0,30.05,NW,325,6.0,10.0,53,0.00,,,-99.99,,2013-09-16 21:56:00,
2013-09-16 18:00:00,65.0,57.0,30.06,West,273,0.0,9.0,75,0.00,,,-99.99,,2013-09-16 22:00:00,
2013-09-16 18:43:00,65.0,57.0,30.06,West,273,0.0,9.0,75,0.00,,,-99.99,,2013-09-16 22:43:00,
2013-09-16 18:54:00,65.0,57.0,30.06,West,273,0.0,9.0,75,0.00,,,-99.99,,2013-09-16 22:54:00,
2013-09-16 19:00:00,63.0,56.0,30.08,NW,310,0.0,0.0,77,0.00,,,-99.99,,2013-09-16 23:00:00,
2013-09-16 19:43:00,63.0,56.0,30.08,NW,310,0.0,0.0,77,0.00,,,-99.99,,2013-09-16 23:43:00,
2013-09-16 19:53:00,63.0,56.0,30.08,NW,310,0.0,0.0,77,0.00,,,-99.99,,2013-09-16 23:53:00,
2013-09-16 20:00:00,60.0,56.0,30.10,NW,318,0.0,2.0,86,0.00,,,-99.99,,2013-09-17 00:00:00,
2013-09-16 20:42:00,60.0,56.0,30.10,NW,318,0.0,2.0,86,0.00,,,-99.99,,2013-09-17 00:42:00,
2013-09-16 20:52:00,60.0,56.0,30.10,NW,318,0.0,2.0,86,0.00,,,-99.99,,2013-09-17 00:52:00,
2013-09-16 21:00:00,59.0,54.0,30.13,North,350,0.0,5.0,82,0.00,,,-99.99,,2013-09-17 01:00:00,
2013-09-16 21:42:00,59.0,54.0,30.13,North,350,0.0,5.0,82,0.00,,,-99.99,,2013-09-17 01:42:00,
2013-09-16 21:52:00,59.0,54.0,30.13,North,350,0.0,5.0,82,0.00,,,-99.99,,2013-09-17 01:52:00,
2013-09-16 22:00:00,59.0,52.0,30.16,NNW,343,2.0,6.0,77,0.00,,,-99.99,,2013-09-17 02:00:00,
2013-09-16 22:42:00,59.0,52.0,30.16,NNW,343,2.0,6.0,77,0.00,,,-99.99,,2013-09-17 02:42:00,
2013-09-16 22:53:00,59.0,52.0,30.16,NNW,343,2.0,6.0,77,0.00,,,-99.99,,2013-09-17 02:53:00,
2013-09-16 23:00:00,57.0,51.0,30.17,North,352,2.0,8.0,81,0.00,,,-99.99,,2013-09-17 03:00:00,
2013-09-16 23:45:00,57.0,51.0,30.17,North,352,2.0,8.0,81,0.00,,,-99.99,,2013-09-17 03:45:00,
2013-09-16 23:54:00,57.0,51.0,30.17,North,352,2.0,8.0,81,0.00,,,-99.99,,2013-09-17 03:54:00,